User: anonymous   Login
Location: Igri�s
(42.2144°N, 0.4320°W)
Time: 20:29:30
(UTC+00:00)
Language:

CARTOSAT-1 - Orbit

View from above orbital plane
View from above orbital plane
View from above satellite
View from above satellite

Ground track
Ground track

The orbit data is extracted from the following two-line orbital elements,

1 28649U 05017A   21169.09033796  .00000108  00000-0  19289-4 0  9990
2 28649  97.7674 235.2287 0001328  35.1665 324.9637 14.83794510872700
Epoch (UTC): 18 June 2021 02:10:05
Eccentricity: 0.0001328
inclination: 97.7674°
perigee height: 616 km
apogee height: 618 km
right ascension of ascending node: 235.2287°
argument of perigee: 35.1665°
revolutions per day: 14.83794510
mean anomaly at epoch: 324.9637°
orbit number at epoch: 87270

The dashed part of the orbit path shows where the satellite is in the earth's shadow,  

DLR